Location: Campillo
(40.8621°N, 4.2488°W)
Time: 12:55:34
(UTC+00:00)

NOSS 3-4 (C) - Pass Details

Date: 11 May 2021
Orbit: 873 x 1339 km, 63.4° (Epoch: 06 May)

Event Time Altitude Azimuth Distance (km) Brightness Sun altitude
Rises 23:01:19 0° 321° (NW) 3,888 7.7 -28.7°
Reaches altitude 10° 23:03:55 10° 316° (NW) 2,994 6.8 -28.8°
Maximum altitude 23:10:53 53° 242° (WSW) 1,453 4.2 -29.2°
Enters shadow 23:11:38 51° 222° (SW) 1,492 4.2 -29.3°
